Regional Weather Roundup
Issued by NWS New Orleans/Baton Rouge, LA

Home | Current Version | Previous Version | Graphics & Text | Print | Product List | Glossary On
Versions: 1 2 3 4 5 6 7 8 9 10 11 12 13 14 15 16 17 18 19 20 21 22 23 24 25 26 27 28 29 30 31 32 33 34 35 36 37 38 39 40 41 42 43 44 45 46 47 48 49 50
029
ASUS44 KLIX 191801
RWRLIX
NEW ORLEANS REGIONAL WEATHER ROUNDUP
NATIONAL WEATHER SERVICE NEW ORLEANS LA
100 PM CDT SAT APR 19 2014

NOTE: "FAIR" INDICATES FEW OR NO CLOUDS BELOW 12,000 FEET WITH NO
      SIGNIFICANT WEATHER AND/OR OBSTRUCTIONS TO VISIBILITY.
      SKY/WX - SKY CONDITION AND SIGNIFICANT WEATHER.
      TMP - AIR TEMPERATURE.     DP    - DEWPOINT TEMPERATURE.
      RH  - RELATIVE HUMIDITY.   PRES  - PRESSURE.
      HI  - HEAT INDEX.          WCI   - WIND CHILL INDEX.

*  THESE STATIONS ARE NOT NWS OR FAA STATIONS AND ARE NOT UNDER
   NWS QUALITY CONTROL.

LAZ038-040-048-061>063-065>067-069-191900-
SOUTHEAST LOUISIANA

CITY           SKY/WX    TMP DP  RH WIND       PRES   REMARKS
N.O. AUDUBON   NOT AVBL
N.O. INTL ARPT MOSUNNY   72  52  49 N8        30.15F
6HR MIN TEMP:  57; 6HR MAX TEMP:  72;

N.O. LAKEFRONT SUNNY     67  57  70 W8        30.16F
6HR MIN TEMP:  59; 6HR MAX TEMP:  67;

N.O. DOWNTOWN*   N/A     72  50  46 NW5       30.16F
6HR MIN TEMP:  57; 6HR MAX TEMP:  72;

SLIDELL        SUNNY     75  49  39 NE8G16    30.13F
6HR MIN TEMP:  53; 6HR MAX TEMP:  76;

BATON ROUGE    SUNNY     76  51  41 CALM      30.17F
6HR MIN TEMP:  52; 6HR MAX TEMP:  77;

BOOTHVILLE     SUNNY     65  52  62 N9        30.16S
6HR MIN TEMP:  59; 6HR MAX TEMP:  66;

BELLE CHASSE   MOSUNNY   74  51  44 VRB3      30.14F
6HR MIN TEMP:  52; 6HR MAX TEMP:  74;

BOGALUSA*        N/A     76  49  38 N10G17    30.15F
6HR MIN TEMP:  52; 6HR MAX TEMP:  76;

GALLIANO*      CLEAR     73  54  51 CALM      30.15F
6HR MIN TEMP:  54; 6HR MAX TEMP:  73;

NEW ROADS*     NOT AVBL
GONZALES*        N/A     74  53  46 N3        30.16F
6HR MIN TEMP:  51; 6HR MAX TEMP:  74;

HAMMOND*       NOT AVBL
HOUMA*         SUNNY     73  52  46 N5        30.16F
PORT FOURCHON* CLEAR     70  54  56 N8        30.18S

$$

MSZ070-080>082-191900-
SOUTHERN MISSISSIPPI

CITY           SKY/WX    TMP DP  RH WIND       PRES   REMARKS
MCCOMB         SUNNY     76  48  37 N12       30.15F
6HR MIN TEMP:  50; 6HR MAX TEMP:  76;

GULFPORT       SUNNY     78  48  34 N9G22     30.10F
6HR MIN TEMP:  56; 6HR MAX TEMP:  78;

BILOXI         NOT AVBL
PASCAGOULA     SUNNY     74  52  46 N15       30.08F
6HR MIN TEMP:  54; 6HR MAX TEMP:  75;


$$

COASTAL OBSERVATIONS
LAKE AND NEARSHORE STATIONS

STATION/POSITION TIME  TEMP    WIND        PRES    WAVE
                       AIR SEA DIR/SP/G            HT/PER
                 (UTC) (F)     (DEG/KT/KT) (MB)    (FT/S)
PASCAGOULA       1700   71      20/ 12/ 17 1018.4
WAVELAND YACHT   1700   70 67   10/ 10/ 14 1019.0
GRAND ISLE       1700   68 66  360/  6/  8 1021.7
SOUTHWEST PASS   1700   67 58  360/ 11/ 12 1021.1
NEW CANAL        1700   65 65  260/  5/  8 1021.9
SHELL BEACH      1700   64 62  260/  5/  5 1020.9

OFFSHORE STATIONS

STATION/POSITION TIME  TEMP    WIND        PRES    WAVE
                       AIR SEA DIR/SP/G            HT/PER
                 (UTC) (F)     (DEG/KT/KT) (MB)    (FT/S)
64 S DAUPHIN ISL 1709   63 71  360/ 16/ 19 1019.1

$$




USA.gov is the U.S. government's official web portal to all federal, state and local government web resources and services.